Vertical_Velocity
2 -1 -2 -3 -5 -6 -7 -7 -5 -4 -3 -3 -2 -2 -1 1 2 3 4 4 2 0 -1 -1 -1 -0 1 3 3 2 2 1 1 0 1 2 3 3 2 0 0 0 0 -0 1 1 1 1 1 0 -0 -0 1 0 0 1 2 1 -0 1 0 -0 -1 -1 -2 -2 -1 -1 -2
4 1 0 -1 -2 -4 -5 -6 -5 -5 -6 -6 -3 -2 -1 -1 0 1 3 5 4 3 2 1 1 1 2 2 4 4 2 -0 0 1 2 3 3 3 2 1 1 1 1 1 1 1 1 1 1 1 0 0 2 2 1 2 3 2 1 0 0 0 -0 -1 -2 -1 -1 -0 -1
7 4 2 2 0 -2 -3 -4 -4 -5 -6 -8 -5 -3 -2 -2 -1 0 1 3 3 3 3 1 1 2 3 2 4 4 2 -1 -0 1 3 4 4 4 3 2 1 1 1 2 1 1 1 1 1 1 1 1 2 2 2 2 3 2 1 -1 -0 0 0 -1 -1 -1 0 -0 -0
11 8 6 4 3 1 -1 -2 -3 -4 -5 -6 -6 -5 -4 -3 -2 -1 -0 -0 0 0 0 -0 -0 1 2 3 2 1 1 0 1 3 5 6 6 5 3 2 1 1 1 2 2 2 1 1 1 1 1 2 2 2 2 2 2 1 0 -1 0 0 -0 -1 -1 0 1 -0 -0
10 10 9 8 6 3 1 0 -1 -2 -3 -2 -3 -4 -4 -4 -3 -3 -3 -2 -2 -2 -2 -1 -0 1 2 2 0 -1 -0 2 4 6 7 7 6 5 3 2 2 2 3 4 4 3 3 2 2 2 2 2 2 2 2 1 1 0 -1 -0 1 1 -0 -1 -1 -0 0 -0 -0
4 6 7 8 7 5 2 1 1 -0 -1 -0 -1 -2 -2 -2 -3 -3 -3 -2 -2 -1 -0 1 1 1 1 1 -0 0 2 4 7 8 8 7 5 3 2 2 3 4 4 4 4 4 3 3 3 2 2 3 2 2 1 2 0 -1 -1 -0 -0 1 1 -0 -1 -0 0 -0 0
-0 1 3 5 5 4 3 2 1 1 1 1 -0 -1 -1 -1 -1 -1 -1 -1 -0 0 1 2 2 1 0 1 2 4 6 7 8 8 8 5 3 2 2 2 4 4 4 3 4 3 3 3 2 2 1 2 2 1 1 1 -0 -1 -1 -1 -1 1 2 -1 -1 -0 1 -0 0
-2 -1 0 1 2 2 2 2 1 1 1 2 1 0 -0 0 -0 -0 0 1 1 2 2 1 1 1 2 3 4 6 7 8 7 7 6 3 2 2 3 4 4 4 4 3 4 3 2 2 2 1 1 1 1 0 0 1 -0 -1 -1 -1 -1 0 2 1 -0 -0 0 -0 -1
-2 -2 -2 -2 -1 0 1 -0 0 1 1 1 1 1 1 1 1 1 1 1 2 2 2 1 2 3 4 5 6 6 7 7 5 4 3 3 3 3 4 5 5 4 4 4 4 3 2 2 2 1 1 1 0 -0 -0 1 0 -1 -2 -1 -1 -0 1 1 1 -0 -1 -1 -1
-2 -2 -2 -2 -1 1 1 -0 -1 -0 1 0 0 1 1 1 1 1 2 2 2 2 2 2 3 4 5 6 6 5 5 4 3 2 2 3 4 4 4 5 5 5 5 5 5 4 3 2 2 1 1 1 1 -0 -1 1 1 -1 -2 -1 0 0 -0 0 1 0 -1 -2 -2
-1 -1 -1 -1 0 2 3 2 1 0 1 1 0 0 1 1 1 2 2 4 3 2 2 3 4 4 5 6 5 4 3 3 3 3 3 3 4 4 5 4 5 5 5 4 4 4 3 1 1 1 0 1 1 1 -0 -0 0 -1 -1 -1 0 0 -1 -1 1 0 -1 -3 -3
-1 -1 -1 -0 1 3 4 4 3 2 2 1 1 1 1 2 2 2 2 4 4 3 3 4 4 4 4 5 5 4 3 2 3 3 3 3 4 4 4 4 3 3 3 3 2 2 2 1 0 0 0 0 1 1 1 -0 -1 -1 -1 -2 -1 -0 -1 -1 -1 -1 -1 -3 -2
0 -0 -1 -0 2 3 4 4 4 3 2 1 1 1 2 2 2 3 3 3 3 3 3 4 4 4 3 3 4 3 3 2 3 3 4 4 4 4 3 2 2 2 2 2 2 2 1 0 0 0 0 -0 1 1 1 -0 -1 -2 -2 -2 -1 -1 -0 -1 -1 -1 -2 -2 -2
1 1 1 1 2 3 4 4 4 3 2 1 1 2 2 2 3 3 3 3 3 3 3 3 4 4 3 2 2 2 3 3 3 4 4 4 3 3 2 2 2 2 2 2 2 2 1 1 0 0 -0 -1 -1 -1 -0 -1 -2 -2 -3 -2 -2 -1 -0 0 0 -0 -1 -2 -2
2 2 2 2 2 3 3 3 2 2 2 1 1 2 2 2 3 3 3 2 2 3 2 2 2 2 3 3 2 2 3 4 3 3 3 3 3 3 3 3 3 3 3 2 2 2 2 1 0 -1 -1 -2 -2 -2 -2 -2 -2 -3 -3 -2 -2 -2 -1 0 1 1 0 -0 -1
3 3 3 3 2 2 2 1 1 1 1 1 1 2 2 2 2 3 3 1 1 2 3 2 1 1 2 4 3 2 2 3 3 2 2 2 3 3 4 4 4 3 3 2 1 1 1 1 0 -1 -2 -3 -4 -3 -3 -2 -2 -2 -2 -2 -2 -2 -1 -1 0 1 0 0 1
3 3 3 2 2 1 0 -0 -0 -0 0 0 1 1 2 2 2 2 3 2 1 1 2 3 2 2 2 3 4 3 2 1 2 2 3 3 4 4 4 4 4 3 2 1 1 1 0 0 -0 -1 -2 -3 -3 -3 -3 -2 -2 -2 -1 -2 -2 -2 -1 -1 -1 -0 -0 -0 0
2 2 2 1 0 -0 -0 -1 -1 -0 0 1 1 1 2 2 1 1 2 2 1 1 1 3 3 3 3 2 3 3 3 2 3 3 4 4 4 4 4 3 3 2 1 1 0 0 -0 -0 -1 -1 -2 -2 -2 -2 -2 -1 -1 -1 -1 -1 -1 -1 -1 -1 -1 -1 -1 -1 -1
1 0 -0 0 -0 -1 -1 -0 0 1 1 1 1 1 1 1 1 1 1 1 2 2 2 2 3 3 3 2 2 3 3 3 3 4 4 4 4 3 2 2 1 1 1 0 0 -0 -0 -1 -1 -1 -1 -2 -2 -2 -1 -1 -1 -1 -1 -0 -1 -1 -1 -1 -1 -1 -1 -2 -2
0 -1 -1 -1 -0 -0 -0 0 1 1 1 1 1 1 0 1 1 1 1 1 2 2 3 2 2 2 2 3 3 3 3 4 4 3 3 3 2 2 1 1 0 0 0 1 0 -0 -1 -1 -2 -2 -2 -2 -2 -2 -1 -1 -1 -1 -1 -1 -1 -1 -1 -1 -1 -2 -2 -2 -2
-1 -1 -1 -2 -1 -1 -0 0 0 0 0 0 0 0 -0 -0 0 1 1 1 1 2 2 2 2 2 2 3 3 3 3 3 3 2 1 1 1 1 0 0 -0 -0 -0 0 -0 -1 -2 -2 -2 -3 -3 -3 -2 -2 -1 -1 -1 -1 -1 -1 -1 -1 -1 -1 -1 -1 -2 -2 -3
-3 -2 -2 -2 -2 -1 -1 -1 -1 -1 -1 -1 -1 -0 -0 -1 -0 -0 0 1 1 1 1 1 1 2 2 2 2 2 2 2 2 1 1 1 0 0 0 1 0 -0 -0 -0 -1 -2 -2 -3 -3 -3 -3 -3 -3 -3 -2 -1 -1 -2 -2 -1 -1 -1 -1 -1 -1 -1 -2 -2 -2
-3 -3 -2 -2 -2 -2 -2 -2 -2 -2 -2 -2 -1 -1 -1 -1 -1 -1 -0 -0 0 0 1 1 1 1 1 2 1 1 1 0 0 0 0 0 0 -0 0 1 1 -0 -1 -1 -1 -2 -3 -4 -4 -4 -3 -3 -3 -3 -2 -1 -2 -2 -2 -2 -1 -0 0 0 0 -0 -1 -1 -2
-3 -3 -2 -2 -2 -2 -2 -2 -2 -2 -2 -1 -1 -1 -1 -1 -1 -1 -1 -0 -0 -0 0 0 1 1 0 0 0 -0 -1 -1 -1 -1 -1 -0 0 0 0 0 0 -0 -1 -1 -1 -2 -2 -3 -4 -4 -4 -3 -3 -2 -2 -1 -1 -2 -2 -1 -1 0 1 1 1 1 -0 -1 -1
-2 -2 -2 -1 -1 -2 -2 -2 -2 -2 -1 -1 -1 -1 -1 -2 -1 -1 -1 -0 -0 -0 -0 -0 -0 -0 -1 -1 -1 -1 -1 -2 -2 -2 -1 -1 -0 1 1 0 -0 -0 -1 -1 -1 -2 -2 -3 -3 -4 -4 -4 -3 -2 -2 -1 -0 -0 -1 -0 -0 0 1 2 2 2 1 0 -1
0 -0 -1 -1 -1 -1 -2 -1 -1 -1 -1 -1 -1 -1 -1 -1 -1 -0 -0 -0 -0 -0 -0 -1 -1 -1 -1 -1 -1 -1 -1 -1 -1 -1 -1 -1 -1 -0 0 0 -0 -1 -1 -1 -2 -2 -3 -3 -4 -4 -4 -5 -4 -3 -2 -1 0 1 0 -0 0 0 1 1 2 2 2 1 0
-0 -0 -1 -1 -1 -1 -1 -1 -0 -0 -0 -0 -1 -1 -0 -0 -0 0 -0 -0 -0 -0 -0 -0 -1 -0 -0 -0 -0 -0 -1 -1 -0 -1 -1 -1 -1 -1 -1 -1 -1 -1 -2 -2 -3 -3 -3 -3 -4 -4 -5 -5 -5 -4 -2 -1 -0 0 1 0 0 0 1 1 1 2 2 2 1
-2 -1 -1 -1 -1 -1 -0 0 0 0 0 0 0 0 1 1 1 1 1 0 0 0 0 0 1 1 1 1 1 1 0 0 -0 -1 -1 -1 -1 -1 -1 -2 -2 -2 -2 -3 -4 -4 -4 -4 -4 -4 -5 -5 -5 -4 -3 -2 -1 -1 -0 0 0 0 0 0 1 1 1 1 1
-2 -2 -1 -1 -0 0 1 1 1 1 1 1 1 1 2 2 2 1 1 1 1 1 1 1 1 2 2 1 1 1 1 1 0 -0 -1 -2 -2 -2 -1 -1 -2 -2 -3 -3 -4 -4 -4 -4 -4 -4 -4 -5 -5 -5 -4 -3 -2 -2 -1 -0 0 0 0 0 0 0 0 1 1
-2 -1 -1 0 1 1 1 1 1 1 1 2 2 2 2 2 2 2 1 1 1 1 2 2 2 2 2 2 2 1 1 1 1 0 -1 -1 -2 -2 -1 -1 -1 -2 -2 -3 -3 -3 -3 -3 -4 -4 -4 -4 -4 -4 -4 -3 -3 -2 -1 -0 0 0 -0 -0 -0 0 1 1 1
-0 0 1 1 1 1 1 1 1 1 1 1 2 2 2 2 1 1 1 1 1 1 2 2 3 3 2 2 2 2 2 1 1 0 -0 -1 -2 -2 -1 -0 -1 -1 -2 -2 -3 -3 -3 -3 -4 -4 -4 -4 -4 -4 -3 -3 -2 -2 -1 -0 0 0 -0 -0 -0 0 1 1 1
1 1 1 1 1 1 1 1 1 1 1 2 2 2 2 2 2 2 2 2 2 2 2 2 3 2 2 2 3 2 2 2 1 0 -0 -1 -1 -2 -1 -0 -0 -1 -2 -3 -3 -3 -3 -3 -3 -3 -3 -4 -3 -3 -3 -2 -2 -1 -0 -0 0 -0 -0 -1 -0 0 0 0 0
1 1 1 1 0 0 1 1 1 2 2 3 3 3 3 3 3 3 2 2 2 2 2 2 2 2 2 2 2 2 2 2 1 0 -1 -1 -1 -1 -1 -1 -1 -1 -2 -3 -3 -3 -3 -3 -3 -3 -3 -3 -3 -3 -2 -1 -1 -0 -0 0 0 -0 -1 -1 -1 -1 -0 -0 -0
1 1 1 1 1 1 2 3 3 4 4 5 5 5 4 4 3 3 2 2 2 2 2 2 2 2 1 1 1 1 0 0 1 0 -0 -1 -2 -2 -2 -1 -1 -2 -2 -3 -3 -3 -3 -2 -2 -3 -3 -3 -3 -2 -2 -1 -0 0 0 0 0 -0 -1 -2 -1 -1 -1 -0 -1
1 2 2 3 3 4 4 5 5 6 5 5 4 4 4 3 2 2 1 1 1 1 1 1 1 1 1 0 1 1 0 -0 -0 -0 -1 -1 -2 -2 -2 -2 -2 -2 -2 -3 -3 -3 -2 -2 -2 -2 -3 -3 -2 -2 -1 -0 0 1 1 0 -0 -1 -1 -2 -2 -1 -1 -1 -1
3 4 4 4 5 5 5 5 5 4 4 3 2 2 1 1 1 0 0 -0 -0 0 0 1 1 0 0 -0 -0 0 0 0 -1 -1 -1 -1 -2 -2 -3 -2 -2 -2 -2 -3 -3 -3 -2 -2 -2 -2 -3 -3 -2 -1 -1 0 1 1 1 0 -0 -1 -1 -2 -2 -1 -1 -1 -1
3 3 3 3 3 2 2 2 2 2 1 0 -0 -1 -1 -1 -1 -1 -1 -1 -1 -1 -1 0 1 0 0 0 1 1 1 0 -1 -1 -2 -2 -2 -3 -3 -3 -2 -2 -2 -3 -3 -2 -2 -1 -2 -2 -2 -3 -2 -1 -0 0 1 0 0 -0 -1 -1 -1 -2 -1 -1 -0 -1 -1
0 -0 -1 -1 -1 -1 -1 -1 -1 -2 -2 -2 -2 -2 -2 -2 -2 -2 -2 -2 -2 -2 -2 -1 -0 0 0 0 1 1 1 1 -0 -2 -3 -3 -3 -3 -3 -3 -3 -2 -2 -2 -2 -2 -2 -1 -2 -2 -2 -2 -2 -1 -0 0 0 -0 -1 -1 -1 -1 -1 -1 -1 -0 0 0 -0
-4 -3 -3 -3 -3 -3 -3 -3 -3 -3 -3 -3 -3 -3 -3 -3 -2 -2 -2 -1 -1 -2 -2 -1 -1 -0 -0 0 0 1 1 1 -0 -1 -3 -4 -4 -4 -4 -4 -3 -3 -2 -2 -2 -2 -2 -1 -1 -2 -2 -2 -2 -1 -1 -0 -0 -1 -1 -1 -1 -1 -0 0 0 1 1 2 1
-5 -4 -4 -3 -3 -3 -3 -4 -4 -4 -3 -3 -3 -3 -3 -2 -2 -1 -1 -1 -1 -1 -1 -1 -1 -1 -0 -0 0 0 1 1 0 -1 -2 -3 -4 -4 -4 -4 -4 -3 -2 -2 -2 -2 -2 -1 -1 -2 -2 -2 -2 -2 -1 -1 -1 -1 -1 -1 -1 -0 0 1 1 1 2 2 2
-3 -3 -2 -2 -2 -3 -3 -3 -3 -3 -3 -2 -2 -2 -2 -1 -1 -1 -1 -0 -1 -1 -1 -1 -1 -1 -0 -0 -0 0 0 1 -0 -1 -2 -3 -3 -4 -4 -4 -4 -3 -3 -2 -2 -2 -2 -2 -2 -2 -2 -2 -2 -2 -2 -2 -2 -2 -2 -1 -1 -0 0 1 2 2 2 2 2
Height
5648 5645 5642 5639 5636 5634 5631 5629 5627 5625 5623 5621 5619 5616 5614 5612 5610 5607 5604 5601 5597 5594 5591 5588 5586 5584 5582 5580 5578 5576 5574 5572 5570 5569 5568 5567 5565 5563 5561 5559 5557 5555 5553 5552 5550 5549 5547 5546 5545 5543 5543 5542 5541 5540 5539 5539 5538 5537 5535 5535 5534 5533 5533 5532 5531 5531 5530 5529 5528
5645 5642 5638 5635 5633 5630 5627 5625 5623 5620 5618 5616 5614 5612 5609 5607 5604 5602 5599 5596 5593 5589 5586 5583 5581 5579 5577 5575 5573 5571 5569 5567 5565 5564 5563 5562 5560 5558 5556 5554 5552 5550 5548 5547 5545 5544 5542 5541 5540 5538 5538 5537 5536 5535 5534 5533 5533 5531 5530 5529 5529 5528 5527 5526 5526 5525 5525 5524 5523
5641 5638 5635 5632 5629 5626 5623 5620 5618 5615 5613 5610 5608 5606 5603 5601 5598 5596 5593 5590 5588 5584 5581 5578 5576 5574 5572 5570 5568 5566 5564 5563 5561 5560 5559 5558 5556 5553 5551 5549 5547 5545 5543 5542 5540 5539 5537 5536 5535 5533 5533 5532 5531 5530 5529 5528 5527 5526 5525 5524 5523 5523 5522 5521 5520 5520 5519 5518 5518
5638 5634 5631 5628 5624 5621 5618 5615 5613 5610 5607 5604 5602 5600 5598 5595 5593 5590 5587 5584 5582 5579 5576 5573 5571 5569 5567 5565 5563 5561 5560 5558 5557 5556 5555 5553 5551 5548 5546 5544 5542 5540 5538 5537 5535 5534 5533 5531 5530 5528 5528 5527 5526 5525 5523 5523 5521 5520 5519 5518 5518 5517 5516 5515 5515 5514 5514 5513 5513
5632 5629 5627 5623 5620 5616 5613 5610 5607 5604 5602 5599 5597 5594 5591 5589 5587 5584 5581 5578 5576 5573 5570 5568 5566 5564 5562 5560 5558 5557 5555 5554 5553 5552 5550 5548 5546 5543 5541 5539 5537 5535 5534 5532 5531 5529 5528 5526 5525 5523 5523 5521 5520 5519 5518 5517 5516 5515 5514 5513 5513 5512 5511 5510 5509 5509 5508 5507 5507
5626 5624 5621 5618 5615 5611 5608 5605 5602 5599 5596 5594 5591 5588 5586 5583 5581 5578 5576 5573 5571 5568 5566 5564 5562 5559 5557 5555 5554 5553 5551 5551 5549 5548 5546 5543 5541 5538 5536 5534 5532 5530 5529 5527 5526 5524 5523 5521 5520 5518 5517 5516 5515 5513 5513 5511 5510 5509 5508 5508 5507 5506 5505 5504 5504 5503 5503 5502 5501
5621 5618 5616 5613 5609 5606 5603 5599 5597 5594 5591 5588 5586 5583 5580 5578 5575 5573 5570 5568 5566 5563 5561 5559 5557 5554 5553 5551 5550 5549 5548 5546 5544 5543 5540 5538 5535 5533 5531 5529 5527 5526 5524 5522 5521 5519 5517 5516 5514 5513 5512 5511 5509 5508 5507 5506 5504 5503 5503 5502 5502 5501 5500 5499 5498 5498 5497 5496 5496
5616 5613 5610 5607 5604 5601 5598 5595 5592 5589 5586 5583 5581 5578 5575 5573 5570 5567 5565 5563 5560 5558 5556 5554 5552 5550 5548 5547 5546 5545 5543 5542 5539 5537 5534 5532 5530 5528 5526 5524 5523 5521 5519 5517 5515 5513 5512 5510 5509 5508 5507 5505 5504 5503 5502 5501 5499 5498 5498 5497 5496 5495 5494 5493 5493 5492 5491 5491 5490
5611 5608 5605 5602 5599 5596 5593 5590 5587 5584 5582 5579 5576 5573 5570 5568 5565 5562 5559 5557 5555 5553 5550 5548 5547 5546 5544 5543 5542 5540 5538 5536 5534 5531 5528 5526 5524 5523 5521 5519 5518 5516 5514 5512 5510 5508 5507 5505 5504 5503 5501 5500 5498 5497 5496 5495 5494 5493 5492 5492 5491 5490 5489 5488 5487 5486 5485 5485 5484
5606 5603 5600 5597 5594 5591 5588 5585 5582 5579 5577 5574 5571 5568 5565 5563 5560 5557 5554 5552 5550 5547 5545 5544 5543 5541 5540 5538 5537 5534 5532 5530 5528 5525 5523 5521 5520 5518 5516 5514 5513 5511 5508 5507 5505 5503 5501 5500 5498 5497 5496 5495 5493 5492 5491 5490 5488 5487 5487 5486 5485 5484 5483 5483 5482 5481 5480 5479 5478
5601 5598 5595 5593 5590 5587 5584 5580 5577 5574 5571 5568 5565 5563 5560 5557 5554 5552 5549 5547 5545 5543 5541 5539 5538 5536 5534 5533 5531 5528 5526 5524 5522 5520 5518 5516 5515 5513 5511 5509 5507 5505 5503 5501 5499 5498 5496 5494 5493 5492 5491 5489 5488 5487 5485 5484 5483 5482 5481 5480 5480 5479 5478 5477 5476 5475 5473 5473 5472
5596 5593 5590 5588 5585 5582 5579 5576 5572 5569 5566 5563 5560 5557 5554 5552 5549 5547 5544 5542 5540 5538 5536 5534 5533 5531 5528 5526 5524 5522 5520 5518 5516 5515 5513 5511 5509 5508 5506 5503 5502 5500 5498 5496 5494 5492 5491 5489 5488 5486 5485 5484 5483 5481 5480 5478 5478 5476 5476 5475 5474 5473 5472 5471 5470 5469 5467 5466 5465
5591 5588 5585 5582 5580 5577 5574 5570 5567 5563 5560 5557 5554 5552 5549 5546 5544 5542 5539 5537 5535 5533 5531 5528 5527 5525 5523 5521 5518 5517 5515 5513 5511 5510 5508 5506 5504 5502 5500 5498 5496 5494 5493 5491 5489 5487 5485 5484 5482 5481 5479 5478 5477 5476 5474 5473 5472 5471 5470 5469 5468 5467 5466 5465 5463 5462 5461 5459 5458
5586 5583 5580 5577 5574 5571 5568 5565 5561 5558 5554 5551 5548 5546 5543 5541 5538 5536 5534 5532 5529 5527 5525 5523 5521 5518 5517 5515 5513 5511 5509 5508 5506 5504 5503 5501 5499 5497 5495 5493 5491 5489 5487 5485 5483 5482 5480 5478 5477 5475 5474 5473 5471 5470 5468 5467 5466 5464 5463 5463 5462 5460 5459 5458 5457 5455 5454 5453 5451
5581 5578 5575 5572 5568 5565 5562 5559 5555 5552 5548 5545 5543 5540 5538 5535 5533 5531 5528 5526 5524 5522 5519 5517 5515 5513 5511 5509 5508 5506 5504 5503 5501 5499 5497 5495 5493 5491 5489 5487 5485 5484 5482 5480 5478 5477 5475 5473 5471 5469 5468 5467 5465 5464 5463 5461 5460 5458 5457 5456 5454 5453 5452 5451 5450 5448 5447 5445 5444
5576 5573 5569 5566 5563 5559 5556 5552 5549 5546 5543 5540 5537 5534 5532 5530 5527 5525 5523 5520 5518 5516 5513 5511 5509 5507 5505 5503 5502 5501 5499 5497 5495 5494 5492 5490 5488 5486 5484 5482 5480 5478 5477 5475 5473 5471 5470 5468 5466 5464 5462 5461 5459 5458 5457 5455 5453 5452 5450 5449 5448 5446 5445 5444 5442 5441 5439 5438 5437
5570 5567 5563 5560 5557 5553 5549 5546 5543 5540 5537 5534 5532 5529 5527 5524 5522 5519 5517 5515 5513 5510 5508 5506 5504 5503 5501 5498 5497 5495 5494 5492 5490 5488 5487 5485 5483 5481 5479 5477 5475 5473 5471 5469 5468 5466 5464 5462 5460 5458 5457 5455 5453 5452 5450 5449 5447 5446 5444 5442 5441 5439 5438 5437 5435 5434 5432 5431 5430
5564 5560 5557 5554 5550 5547 5544 5541 5538 5535 5532 5529 5526 5523 5521 5518 5516 5514 5511 5509 5507 5505 5503 5501 5499 5498 5496 5494 5492 5490 5488 5487 5485 5483 5482 5480 5478 5476 5474 5472 5470 5468 5466 5464 5462 5460 5458 5457 5455 5453 5451 5449 5447 5446 5444 5442 5441 5439 5438 5436 5434 5433 5431 5430 5428 5427 5425 5424 5423
5558 5554 5551 5548 5544 5541 5538 5535 5532 5529 5527 5524 5521 5518 5516 5513 5511 5508 5506 5503 5502 5500 5498 5496 5494 5493 5491 5489 5487 5485 5483 5482 5480 5478 5476 5475 5473 5470 5468 5467 5464 5463 5460 5458 5457 5454 5453 5451 5449 5447 5445 5443 5441 5439 5438 5436 5434 5432 5431 5429 5428 5426 5424 5423 5421 5419 5418 5416 5415
5551 5548 5545 5542 5538 5536 5533 5530 5527 5524 5521 5518 5516 5513 5510 5508 5505 5503 5501 5498 5497 5495 5493 5492 5490 5488 5486 5484 5483 5481 5479 5477 5475 5473 5471 5469 5467 5465 5463 5461 5459 5457 5455 5453 5451 5448 5447 5444 5443 5440 5438 5437 5435 5433 5431 5429 5428 5426 5424 5423 5421 5419 5417 5416 5414 5412 5410 5409 5407
5545 5542 5539 5536 5533 5530 5527 5524 5521 5518 5516 5513 5510 5508 5505 5502 5500 5498 5496 5494 5492 5490 5488 5487 5485 5483 5481 5479 5478 5476 5474 5472 5470 5468 5466 5464 5462 5460 5458 5456 5453 5451 5449 5447 5445 5443 5440 5438 5436 5434 5432 5430 5428 5427 5425 5423 5421 5420 5418 5416 5414 5413 5411 5409 5407 5405 5403 5401 5399
5539 5536 5533 5530 5527 5524 5521 5518 5516 5513 5510 5507 5504 5502 5499 5497 5495 5493 5491 5489 5487 5485 5484 5482 5480 5478 5477 5475 5473 5471 5469 5467 5465 5463 5461 5459 5457 5454 5453 5450 5448 5446 5443 5442 5439 5437 5434 5432 5430 5428 5426 5424 5423 5421 5419 5417 5415 5413 5412 5410 5408 5406 5404 5402 5400 5398 5396 5394 5392
5534 5531 5528 5525 5522 5518 5516 5513 5510 5507 5504 5502 5499 5497 5494 5492 5490 5488 5486 5484 5483 5481 5479 5477 5476 5474 5472 5470 5468 5466 5464 5462 5460 5458 5456 5454 5451 5449 5447 5445 5443 5440 5438 5436 5433 5431 5428 5426 5424 5422 5420 5418 5417 5415 5413 5411 5409 5407 5405 5403 5402 5399 5397 5395 5393 5391 5389 5387 5385
5528 5525 5522 5519 5516 5513 5510 5507 5504 5501 5499 5496 5494 5492 5489 5487 5485 5483 5482 5480 5478 5477 5475 5473 5471 5469 5467 5465 5463 5461 5459 5457 5455 5453 5451 5449 5447 5444 5442 5439 5437 5435 5432 5430 5428 5425 5423 5420 5418 5416 5414 5413 5411 5409 5407 5405 5403 5401 5398 5397 5395 5393 5391 5389 5387 5384 5383 5381 5379
5523 5520 5517 5513 5511 5508 5504 5502 5499 5496 5494 5491 5489 5487 5485 5483 5481 5479 5478 5476 5474 5472 5470 5468 5466 5464 5462 5460 5458 5456 5454 5452 5450 5448 5446 5444 5442 5439 5437 5434 5432 5429 5427 5424 5422 5419 5417 5414 5412 5410 5408 5406 5404 5403 5401 5399 5397 5394 5392 5390 5388 5386 5384 5383 5381 5379 5377 5376 5374
5518 5515 5512 5508 5505 5503 5499 5497 5494 5492 5489 5487 5485 5483 5481 5479 5477 5475 5473 5472 5470 5468 5466 5464 5462 5460 5458 5456 5453 5451 5449 5447 5445 5443 5441 5438 5436 5434 5432 5429 5426 5424 5421 5418 5416 5413 5411 5409 5406 5404 5402 5400 5398 5396 5394 5392 5390 5388 5386 5384 5382 5380 5378 5377 5376 5374 5373 5371 5370
5513 5509 5506 5503 5500 5498 5495 5492 5489 5487 5485 5483 5481 5479 5477 5475 5473 5471 5469 5468 5466 5464 5462 5459 5457 5455 5453 5451 5449 5447 5444 5442 5440 5438 5435 5433 5431 5428 5426 5423 5421 5418 5415 5413 5410 5408 5405 5403 5400 5398 5395 5393 5391 5389 5388 5386 5384 5382 5380 5378 5376 5375 5373 5372 5371 5370 5369 5368 5367
5508 5504 5501 5498 5496 5493 5490 5488 5485 5483 5481 5479 5477 5475 5473 5471 5469 5468 5466 5463 5462 5459 5457 5455 5453 5451 5449 5447 5444 5442 5440 5437 5435 5433 5430 5428 5426 5423 5421 5418 5415 5413 5410 5407 5404 5402 5399 5397 5394 5392 5389 5387 5385 5383 5381 5379 5378 5376 5374 5373 5371 5370 5369 5368 5367 5366 5365 5364 5364
5503 5500 5497 5494 5492 5489 5486 5484 5482 5479 5477 5475 5473 5471 5469 5468 5466 5463 5462 5460 5458 5455 5453 5451 5449 5447 5444 5442 5440 5437 5435 5433 5430 5428 5425 5423 5420 5418 5415 5413 5410 5407 5404 5402 5399 5396 5393 5391 5388 5386 5383 5381 5379 5377 5375 5374 5372 5371 5370 5368 5367 5366 5365 5364 5363 5363 5362 5362 5361
5498 5495 5493 5490 5487 5485 5482 5480 5478 5476 5473 5472 5470 5468 5466 5464 5462 5460 5458 5455 5453 5451 5449 5447 5444 5442 5440 5438 5435 5433 5430 5428 5425 5423 5420 5418 5415 5413 5410 5408 5405 5402 5399 5396 5393 5390 5388 5385 5383 5380 5378 5376 5373 5372 5370 5369 5368 5367 5365 5364 5363 5362 5361 5360 5360 5359 5359 5359 5358
5494 5491 5488 5486 5483 5481 5478 5476 5474 5472 5470 5468 5466 5464 5462 5460 5458 5456 5453 5451 5449 5447 5445 5443 5440 5438 5435 5433 5431 5428 5425 5423 5420 5418 5415 5413 5410 5408 5405 5402 5399 5396 5393 5390 5388 5385 5383 5380 5378 5375 5373 5371 5369 5368 5366 5365 5364 5363 5362 5361 5360 5359 5358 5358 5357 5357 5356 5356 5356
5490 5487 5484 5482 5479 5477 5474 5472 5470 5468 5466 5464 5462 5460 5458 5456 5454 5452 5449 5447 5445 5443 5440 5438 5436 5433 5431 5428 5426 5423 5421 5418 5415 5413 5410 5407 5404 5402 5399 5397 5394 5391 5388 5385 5383 5380 5378 5375 5373 5371 5369 5367 5365 5364 5363 5361 5360 5359 5358 5358 5357 5356 5355 5355 5354 5354 5354 5353 5353
5486 5483 5480 5478 5475 5473 5471 5469 5467 5465 5463 5461 5459 5457 5454 5452 5450 5448 5445 5443 5441 5438 5436 5433 5431 5428 5426 5423 5421 5418 5415 5413 5410 5407 5404 5402 5399 5397 5394 5392 5389 5386 5383 5380 5378 5375 5373 5371 5368 5367 5365 5363 5362 5360 5359 5358 5357 5357 5356 5355 5354 5353 5353 5352 5352 5352 5351 5351 5351
5481 5479 5476 5474 5472 5469 5468 5465 5463 5462 5459 5458 5455 5453 5451 5448 5446 5443 5441 5439 5436 5434 5432 5429 5426 5423 5421 5418 5416 5413 5410 5408 5405 5403 5400 5397 5394 5392 5390 5387 5384 5381 5378 5376 5373 5371 5369 5367 5365 5363 5361 5360 5358 5358 5357 5356 5355 5354 5353 5352 5352 5351 5350 5350 5349 5349 5349 5348 5348
5478 5475 5473 5471 5469 5467 5465 5463 5460 5458 5456 5454 5452 5449 5447 5444 5442 5439 5437 5434 5432 5429 5427 5424 5421 5419 5416 5413 5411 5408 5405 5403 5400 5398 5395 5393 5390 5387 5385 5382 5379 5377 5374 5371 5369 5367 5365 5363 5361 5360 5358 5357 5356 5355 5354 5353 5352 5351 5351 5350 5349 5349 5348 5348 5347 5347 5346 5346 5345
5474 5472 5469 5467 5465 5463 5461 5459 5457 5454 5452 5450 5448 5445 5443 5440 5437 5435 5432 5430 5427 5425 5422 5419 5417 5414 5411 5409 5406 5404 5401 5398 5396 5393 5391 5388 5385 5383 5380 5378 5375 5373 5370 5367 5365 5363 5361 5359 5358 5357 5355 5354 5353 5352 5351 5350 5350 5349 5348 5348 5347 5347 5346 5345 5345 5344 5344 5343 5342
5470 5468 5465 5463 5461 5459 5457 5455 5453 5450 5448 5445 5443 5440 5438 5435 5433 5430 5427 5425 5423 5420 5418 5415 5413 5410 5407 5405 5402 5399 5397 5394 5391 5389 5386 5383 5381 5378 5376 5373 5371 5368 5366 5363 5361 5360 5358 5356 5355 5354 5353 5352 5350 5350 5349 5348 5347 5347 5346 5346 5345 5344 5344 5343 5343 5342 5341 5340 5339
5464 5462 5460 5458 5456 5454 5452 5450 5447 5445 5443 5440 5438 5436 5433 5431 5428 5425 5423 5420 5418 5415 5413 5411 5408 5406 5403 5401 5398 5396 5393 5390 5387 5384 5382 5379 5376 5374 5371 5369 5367 5364 5362 5360 5358 5357 5355 5353 5352 5351 5350 5349 5348 5347 5346 5346 5345 5344 5344 5343 5343 5342 5342 5341 5340 5339 5339 5338 5337
5458 5457 5455 5453 5451 5449 5447 5445 5443 5440 5438 5436 5433 5431 5428 5426 5424 5421 5418 5416 5413 5411 5409 5407 5404 5402 5399 5397 5394 5392 5389 5386 5383 5380 5377 5374 5372 5369 5367 5364 5363 5361 5359 5357 5355 5353 5352 5351 5350 5348 5348 5346 5345 5345 5344 5343 5343 5342 5342 5341 5341 5340 5339 5338 5338 5337 5336 5335 5334
5454 5452 5450 5448 5446 5444 5442 5440 5438 5436 5434 5432 5429 5427 5424 5422 5420 5417 5415 5412 5410 5407 5405 5403 5400 5398 5395 5393 5390 5388 5385 5382 5379 5376 5373 5370 5368 5365 5363 5361 5359 5357 5356 5354 5352 5351 5349 5348 5347 5346 5345 5344 5343 5342 5342 5341 5340 5340 5339 5339 5338 5338 5337 5336 5335 5335 5333 5333 5331
5450 5448 5447 5444 5443 5441 5438 5436 5434 5432 5430 5428 5425 5423 5420 5418 5416 5413 5411 5408 5406 5403 5401 5398 5396 5394 5391 5388 5386 5384 5381 5378 5376 5373 5369 5366 5363 5361 5359 5357 5355 5354 5353 5351 5350 5348 5347 5346 5345 5344 5343 5342 5341 5340 5339 5339 5338 5338 5337 5336 5336 5335 5335 5334 5333 5332 5331 5329 5328